Location: Nied?wied?
(53.3665°N, 14.8184°E)
Time: 22:06:16
(UTC+00:00)

Cosmos 1633 Rocket - Pass Details

Date: 03 March 2021
Orbit: 606 x 624 km, 82.5° (Epoch: 12 April)

Event Time Altitude Azimuth Distance (km) Brightness Sun altitude
Rises 17:57:53 0° 197° (SSW) 2,895 6.7 -12.0°
Reaches altitude 10° 18:00:07 10° 199° (SSW) 1,995 5.8 -12.3°
Maximum altitude 18:04:31 68° 283° (WNW) 679 3.5 -13.0°
Drops below altitude 10° 18:08:59 10° 7° (N) 2,012 5.7 -13.6°
Sets 18:11:14 0° 10° (N) 2,923 6.5 -14.0°
